| time (UTC) | temp F | wind direction | speed MPH | gust MPH | rain 1hr in | rain 24hr in | rain mn in | humidity % | barometer mb |
| 20260502170110 | 79 | 61 | 4.0 | 11.0 | 0.00 | 0.00 | 0.00 | 79 | 1010.2 |
| 20260502163105 | 79 | 46 | 5.0 | 12.0 | 0.00 | 0.00 | 0.00 | 79 | 1010.4 |
| 20260502161606 | 79 | 69 | 4.0 | 14.0 | 0.00 | 0.00 | 0.00 | 81 | 1010.5 |
| 20260502160108 | 79 | 63 | 4.0 | 14.0 | 0.00 | 0.00 | 0.00 | 81 | 1010.7 |
| 20260502151611 | 80 | 74 | 5.0 | 13.0 | 0.00 | 0.00 | 0.00 | 80 | 1011.1 |
| 20260502150110 | 80 | 53 | 3.0 | 15.0 | 0.00 | 0.00 | 0.00 | 81 | 1011.2 |
| 20260502123057 | 80 | 61 | 5.0 | 13.0 | 0.00 | 0.01 | 0.00 | 80 | 1012.5 |
| 20260502121556 | 80 | 71 | 5.0 | 14.0 | 0.00 | 0.01 | 0.00 | 80 | 1012.5 |
| 20260502120112 | 80 | 52 | 3.0 | 13.0 | 0.00 | 0.01 | 0.00 | 81 | 1012.2 |
| 20260502114602 | 80 | 69 | 6.0 | 16.0 | 0.00 | 0.01 | 0.00 | 80 | 1012.3 |
| 20260502113056 | 80 | 41 | 5.0 | 11.0 | 0.00 | 0.01 | 0.00 | 81 | 1012.0 |
| 20260502111601 | 80 | 57 | 5.0 | 15.0 | 0.00 | 0.01 | 0.00 | 82 | 1011.9 |
| 20260502110057 | 80 | 65 | 5.0 | 15.0 | 0.00 | 0.01 | 0.00 | 83 | 1011.8 |
| 20260502104559 | 80 | 66 | 4.0 | 12.0 | 0.00 | 0.01 | 0.00 | 83 | 1011.5 |
| 20260502103113 | 80 | 71 | 5.0 | 12.0 | 0.00 | 0.01 | 0.00 | 81 | 1011.4 |
| 20260502101557 | 80 | 86 | 6.0 | 14.0 | 0.00 | 0.01 | 0.00 | 81 | 1011.3 |
| 20260502100124 | 80 | 84 | 6.0 | 16.0 | 0.00 | 0.01 | 0.00 | 81 | 1011.2 |
| 20260502090107 | 81 | 74 | 4.0 | 14.0 | 0.00 | 0.01 | 0.00 | 79 | 1010.7 |
| 20260502070100 | 83 | 76 | 4.0 | 14.0 | 0.00 | 0.09 | 0.00 | 75 | 1009.4 |
| 20260502064608 | 83 | 55 | 7.0 | 15.0 | 0.00 | 0.09 | 0.00 | 75 | 1009.4 |
| 20260502063056 | 83 | 67 | 5.0 | 15.0 | 0.00 | 0.09 | 0.00 | 78 | 1009.4 |
| 20260502061558 | 84 | 60 | 8.0 | 15.0 | 0.00 | 0.09 | 0.00 | 78 | 1009.4 |
| 20260502060101 | 84 | 70 | 6.0 | 13.0 | 0.00 | 0.09 | 0.00 | 76 | 1009.5 |
| 20260502054558 | 84 | 57 | 5.0 | 14.0 | 0.00 | 0.09 | 0.00 | 76 | 1009.5 |
| 20260502053100 | 84 | 49 | 7.0 | 13.0 | 0.00 | 0.09 | 0.00 | 75 | 1009.5 |
| 20260502051652 | 84 | 78 | 7.0 | 14.0 | 0.00 | 0.09 | 0.00 | 75 | 1009.6 |
| 20260502050100 | 85 | 81 | 6.0 | 14.0 | 0.00 | 0.09 | 0.00 | 74 | 1009.6 |
| 20260502044609 | 85 | 73 | 7.0 | 14.0 | 0.00 | 0.09 | 0.00 | 75 | 1009.6 |
| 20260502043111 | 85 | 76 | 6.0 | 14.0 | 0.00 | 0.09 | 0.00 | 71 | 1009.7 |
| 20260502041600 | 85 | 71 | 8.0 | 15.0 | 0.00 | 0.09 | 0.00 | 75 | 1009.6 |
| 20260502040059 | 85 | 109 | 7.0 | 16.0 | 0.00 | 0.09 | 0.00 | 75 | 1009.7 |
| 20260502034600 | 86 | 57 | 4.0 | 13.0 | 0.00 | 0.09 | 0.00 | 77 | 1009.9 |
| 20260502033100 | 85 | 88 | 7.0 | 17.0 | 0.00 | 0.09 | 0.00 | 76 | 1010.1 |
| 20260502031613 | 85 | 67 | 8.0 | 18.0 | 0.00 | 0.09 | 0.00 | 78 | 1010.2 |
| 20260502030103 | 85 | 87 | 8.0 | 15.0 | 0.00 | 0.09 | 0.00 | 77 | 1010.4 |
| 20260502024558 | 85 | 72 | 8.0 | 18.0 | 0.00 | 0.09 | 0.00 | 77 | 1010.5 |
| 20260502023058 | 85 | 57 | 6.0 | 13.0 | 0.00 | 0.09 | 0.00 | 77 | 1010.8 |
| 20260502021558 | 85 | 70 | 6.0 | 15.0 | 0.00 | 0.09 | 0.00 | 77 | 1011.1 |
| 20260502020111 | 86 | 35 | 6.0 | 14.0 | 0.00 | 0.09 | 0.00 | 78 | 1011.2 |
| 20260502014559 | 85 | 38 | 6.0 | 14.0 | 0.00 | 0.09 | 0.00 | 77 | 1011.4 |
| 20260502013102 | 85 | 67 | 6.0 | 15.0 | 0.00 | 0.09 | 0.00 | 75 | 1011.4 |
| 20260502011558 | 84 | 103 | 9.0 | 15.0 | 0.00 | 0.09 | 0.00 | 79 | 1011.6 |
| 20260502010058 | 85 | 53 | 7.0 | 15.0 | 0.00 | 0.09 | 0.00 | 78 | 1011.7 |
| 20260502004556 | 85 | 65 | 6.0 | 15.0 | 0.00 | 0.09 | 0.00 | 77 | 1011.9 |
| 20260502003058 | 85 | 55 | 7.0 | 15.0 | 0.00 | 0.09 | 0.00 | 77 | 1011.8 |
| 20260502001559 | 84 | 71 | 6.0 | 14.0 | 0.00 | 0.09 | 0.00 | 78 | 1011.8 |
| 20260502000101 | 84 | 44 | 7.0 | 17.0 | 0.00 | 0.09 | 0.00 | 78 | 1011.8 |
| 20260501234640 | 84 | 84 | 8.0 | 16.0 | 0.00 | 0.09 | 0.00 | 77 | 1011.9 |
| 20260501233106 | 84 | 63 | 6.0 | 14.0 | 0.00 | 0.09 | 0.00 | 77 | 1012.1 |
| 20260501231612 | 84 | 71 | 6.0 | 13.0 | 0.00 | 0.09 | 0.00 | 77 | 1012.0 |
| 20260501230120 | 83 | 74 | 5.0 | 15.0 | 0.00 | 0.09 | 0.00 | 80 | 1012.0 |
| 20260501224603 | 84 | 73 | 5.0 | 11.0 | 0.00 | 0.09 | 0.00 | 79 | 1011.9 |
| 20260501223103 | 83 | 57 | 6.0 | 13.0 | 0.00 | 0.09 | 0.00 | 81 | 1012.0 |
| 20260501221556 | 83 | 63 | 5.0 | 15.0 | 0.00 | 0.09 | 0.00 | 81 | 1012.0 |
| 20260501220055 | 82 | 57 | 4.0 | 13.0 | 0.00 | 0.09 | 0.00 | 82 | 1011.8 |
| 20260501214607 | 82 | 66 | 5.0 | 12.0 | 0.00 | 0.09 | 0.00 | 82 | 1011.5 |
| 20260501213103 | 81 | 69 | 5.0 | 12.0 | 0.00 | 0.09 | 0.00 | 84 | 1011.4 |
| 20260501211557 | 80 | 61 | 4.0 | 11.0 | 0.00 | 0.09 | 0.00 | 85 | 1011.3 |
| 20260501210058 | 80 | 62 | 4.0 | 11.0 | 0.00 | 0.09 | 0.00 | 85 | 1011.3 |
| 20260501204559 | 80 | 55 | 4.0 | 11.0 | 0.00 | 0.09 | 0.00 | 85 | 1011.2 |
| 20260501203104 | 80 | 63 | 4.0 | 12.0 | 0.00 | 0.09 | 0.00 | 85 | 1011.1 |
| 20260501201559 | 80 | 55 | 5.0 | 11.0 | 0.00 | 0.09 | 0.00 | 86 | 1011.0 |
| 20260501200057 | 80 | 73 | 2.0 | 10.0 | 0.00 | 0.09 | 0.00 | 85 | 1010.9 |
| 20260501194602 | 80 | 57 | 2.0 | 10.0 | 0.00 | 0.09 | 0.00 | 85 | 1010.9 |
| 20260501193058 | 80 | 58 | 3.0 | 11.0 | 0.00 | 0.09 | 0.00 | 86 | 1010.8 |
| 20260501191605 | 80 | 67 | 2.0 | 9.0 | 0.00 | 0.09 | 0.00 | 86 | 1010.7 |
| 20260501190114 | 80 | 61 | 4.0 | 12.0 | 0.00 | 0.09 | 0.00 | 85 | 1010.6 |
| 20260501184556 | 80 | 59 | 4.0 | 12.0 | 0.00 | 0.09 | 0.00 | 85 | 1010.4 |
| 20260501183058 | 79 | 53 | 3.0 | 10.0 | 0.00 | 0.09 | 0.00 | 86 | 1010.2 |
| 20260501181600 | 79 | 63 | 2.0 | 9.0 | 0.00 | 0.09 | 0.00 | 86 | 1010.2 |
| 20260501174611 | 79 | 69 | 4.0 | 9.0 | 0.00 | 0.09 | 0.00 | 85 | 1010.2 |
| 20260501173107 | 80 | 49 | 3.0 | 9.0 | 0.00 | 0.09 | 0.00 | 85 | 1010.2 |
| 20260501171600 | 80 | 71 | 2.0 | 11.0 | 0.00 | 0.09 | 0.00 | 87 | 1010.4 |